Regional Weather Roundup
Issued by NWS Sioux Falls, SD

Home | Current Version | Previous Version | Text Only | Print | Product List | Glossary Off
Versions: 1 2 3 4 5 6 7 8 9 10 11 12 13 14 15 16 17 18 19 20 21 22 23 24 25 26 27 28 29 30 31 32 33 34 35 36 37 38 39 40 41 42 43 44 45 46 47 48 49 50

000
ASUS43 KFSD 260902
RWRFSD

WEATHER ROUNDUP FOR SE SOUTH DAKOTA/SW MINNESOTA/NW IOWA
NATIONAL WEATHER SERVICE SIOUX FALLS SD
400 AM CDT THU APR 26 2018

NOTE: "FAIR" INDICATES FEW OR NO CLOUDS BELOW 12,000 FEET WITH NO
SIGNIFICANT WEATHER AND OR OBSTRUCTIONS TO VISIBILITY.


SDZ038>040-050-052>070-261000-
SOUTHEAST SOUTH DAKOTA

CITY           SKY/WX    TMP DP  RH WIND       PRES   REMARKS
BROOKINGS      CLOUDY    43  33  68 S10       29.85F
CHAMBERLAIN    MOCLDY    49  36  60 W8        29.84F
HURON          CLOUDY    45  34  65 S8G20     29.81F
MADISON        FAIR      45  32  61 S12       29.86S
MITCHELL       CLOUDY    47  34  60 S12       29.85F
SIOUX FALLS    CLOUDY    45  31  58 S10       29.88F
WINNER         FAIR      49  32  52 W10       29.87R
YANKTON        CLOUDY    44  32  62 SE5       29.91S
$$

MNZ071-072-080-081-089-090-097-098-261000-
SOUTHWEST MINNESOTA

CITY           SKY/WX    TMP DP  RH WIND       PRES   REMARKS
FAIRMONT       CLOUDY    41  35  79 SW7       29.92S
JACKSON        CLOUDY    41  32  70 S10       29.91F
LUVERNE        CLOUDY    37  30  75 S9        29.89F
MARSHALL       CLOUDY    46  32  58 SW15      29.84F
MONTEVIDEO     CLOUDY    43  34  70 SW8       29.83F
PIPESTONE      CLOUDY   N/A N/A N/A SW8       29.87F
REDWOOD FALLS  CLOUDY    40  33  76 S10       29.85F
TRACY          CLOUDY    45  33  65 SW16      29.85F
WINDOM         PTCLDY    45  25  45 S9        29.89F
WORTHINGTON    CLOUDY    40  31  70 S9        29.90F
$$

IAZ001>003-012>014-020>022-031-032-NEZ013-014-SDZ071-261000-
NORTHWEST IOWA

CITY           SKY/WX    TMP DP  RH WIND       PRES   REMARKS
CHEROKEE       CLOUDY    35  32  91 CALM      29.94S
DENISON        CLOUDY    36  30  80 SE3       29.97S
ESTHERVILLE    CLOUDY    39  33  79 S9        29.91F
LE MARS        CLOUDY    39  34  81 S3        29.94R
ORANGE CITY    CLOUDY    43  34  70 SW3       29.92F
SHELDON        CLOUDY    37  32  81 CALM      29.91S
SIOUX CITY     CLOUDY    45  34  65 SW12      29.94S
SPENCER        CLOUDY    38  31  76 S6        29.93R
$$

ABBREVIATIONS USED IN REMARKS
   TC - TEMPERATURE IN CELSIUS
  WCI - WIND CHILL INDEX
   HX - HEAT INDEX
  VSB - VISIBILITY





USA.gov is the U.S. government's official web portal to all federal, state and local government web resources and services.